Guymon, OK

5:28 AM CDT on April 28, 2017 (GMT -0500)
Guymon Municipal

Weather History for KGUY - May, 2013

Change the Weather History Date:

Wednesday, May 29, 2013

  Actual Average Record
Temperature  
Mean Temperature 78 °F 69 °F  
Max Temperature 92 °F 82 °F 106 °F (2011)
Min Temperature 63 °F 55 °F 52 °F (2012)
Degree Days  
Heating Degree Days 0 1  
Month to date heating degree days 98 93  
Since 1 July heating degree days 4311 4446  
Cooling Degree Days 13 5  
Month to date cooling degree days 160 83  
Year to date cooling degree days 185 98  
Growing Degree Days 28 (Base 50)    
Moisture  
Dew Point 52 °F    
Average Humidity 45    
Maximum Humidity 78    
Minimum Humidity 12    
Precipitation  
Precipitation 0.02 in 0.11 in 0.69 in (2001)
Month to date precipitation 0.16 2.19  
Year to date precipitation 2.35 6.00  
Snow  
Snow 0.00 in - - ()
Month to date snowfall 0.3  
Since 1 July snowfall 22.3  
Snow Depth 0.00 in    
Sea Level Pressure  
Sea Level Pressure 29.38 in    
Wind  
Wind Speed 21 mph (South)    
Max Wind Speed 39 mph    
Max Gust Speed 51 mph    
Visibility 9 miles    
Events      
T = Trace of Precipitation, MM = Missing Value Source: NWS Daily Summary

Daily Weather History Graph

Daily Weather History Graph

Search for Another Location

Airport or City:

Trip Planner

Search our weather history database for the weather conditions in past years. The results will help you decide how hot, cold, wet, or windy it might be!

Date:

Astronomy

May. 29, 2013 Rise Set
Actual Time 6:29 AM CDT 8:57 PM CDT
Civil Twilight 5:59 AM CDT 9:27 PM CDT
Nautical Twilight 5:23 AM CDT 10:04 PM CDT
Astronomical Twilight 4:42 AM CDT 10:45 PM CDT
Moon 12:25 AM CDT (5/29) 11:27 AM CDT (5/29)
Length of Visible Light 15h 27m
Length of Day
14h 27m
Waning Gibbous, 73% of the Moon is Illuminated
May 29
Waning Gibbous
May 31
Last Quarter
Jun 8
New
Jun 16
First Quarter
Jun 23
Full

Hourly Weather History & Observations

Time (CDT) Temp. Heat Index Dew Point Humidity Pressure Visibility Wind Dir Wind Speed Gust Speed Precip Events Conditions
12:10 AM 80.6 °F - 39.2 °F 23% 29.56 in 2.5 mi South 31.1 mph 43.7 mph N/A   Haze
12:12 AM 80.6 °F - 39.2 °F 23% 29.55 in 3.0 mi South 35.7 mph 46.0 mph N/A   Haze
12:19 AM 80.6 °F - 37.4 °F 21% 29.53 in 2.0 mi South 43.7 mph 54.1 mph N/A   Haze
12:31 AM 82.4 °F - 37.4 °F 20% 29.53 in 3.0 mi South 35.7 mph 49.5 mph N/A   Haze
12:53 AM 81.0 °F - 37.0 °F 21% 29.35 in 7.0 mi South 32.2 mph 49.5 mph N/A   Scattered Clouds
1:53 AM 88.0 °F - 28.9 °F 12% 29.34 in 10.0 mi SSW 16.1 mph 23.0 mph N/A   Clear
2:53 AM 75.0 °F - 54.0 °F 48% 29.40 in 10.0 mi South 34.5 mph 50.6 mph N/A   Clear
3:53 AM 70.0 °F - 51.1 °F 51% 29.43 in 10.0 mi South 21.9 mph 39.1 mph N/A   Clear
4:53 AM 66.9 °F - 54.0 °F 63% 29.45 in 10.0 mi South 19.6 mph 29.9 mph N/A   Clear
5:53 AM 68.0 °F - 57.9 °F 70% 29.44 in 10.0 mi South 21.9 mph 28.8 mph N/A   Clear
6:53 AM 68.0 °F - 60.1 °F 76% 29.46 in 10.0 mi SSE 17.3 mph 28.8 mph 0.01 in   Clear
7:53 AM 69.1 °F - 62.1 °F 78% 29.45 in 10.0 mi South 16.1 mph 27.6 mph N/A   Clear
8:53 AM 71.1 °F - 63.0 °F 75% 29.43 in 10.0 mi South 23.0 mph 32.2 mph 0.01 in   Clear
9:53 AM 75.9 °F - 63.0 °F 64% 29.42 in 10.0 mi South 23.0 mph 32.2 mph N/A   Clear
10:53 AM 81.0 °F 81.9 °F 62.1 °F 52% 29.39 in 10.0 mi South 23.0 mph 35.7 mph N/A   Partly Cloudy
11:53 AM 84.9 °F 84.8 °F 60.1 °F 43% 29.38 in 10.0 mi South 21.9 mph 32.2 mph N/A   Partly Cloudy
12:53 PM 89.1 °F 87.3 °F 55.9 °F 32% 29.35 in 10.0 mi South 20.7 mph 32.2 mph N/A   Partly Cloudy
1:53 PM 91.0 °F - 52.0 °F 26% 29.30 in 10.0 mi South 20.7 mph 32.2 mph N/A   Partly Cloudy
2:53 PM 86.0 °F 86.1 °F 61.0 °F 43% 29.31 in 10.0 mi SSE 34.5 mph 46.0 mph N/A   Clear
3:53 PM 87.1 °F 84.9 °F 53.1 °F 31% 29.29 in 10.0 mi South 26.5 mph 39.1 mph N/A   Clear
4:53 PM 86.0 °F 85.0 °F 57.9 °F 38% 29.26 in 10.0 mi SE 34.5 mph 47.2 mph N/A   Clear
5:53 PM 80.1 °F 80.7 °F 59.0 °F 48% 29.29 in 10.0 mi SSE 26.5 mph 42.6 mph N/A   Clear
6:53 PM 77.0 °F - 51.1 °F 40% 29.26 in 10.0 mi South 24.2 mph 39.1 mph N/A   Clear
7:53 PM 79.0 °F - 50.0 °F 36% 29.27 in 10.0 mi South 20.7 mph 29.9 mph N/A   Clear
8:53 PM 75.0 °F - 52.0 °F 44% 29.30 in 10.0 mi SSE 13.8 mph - N/A   Clear
9:53 PM 72.0 °F - 55.0 °F 55% 29.32 in 10.0 mi SSE 16.1 mph 26.5 mph N/A   Clear
10:53 PM 68.0 °F - 55.9 °F 65% 29.35 in 10.0 mi SSE 8.1 mph 19.6 mph N/A   Clear
11:53 PM 64.9 °F - 55.0 °F 70% 29.35 in 10.0 mi ESE 5.8 mph - N/A   Clear